カタログに戻る

FENGYUN 1C DEB

運用中SSO
NORAD 30369·DEBRIS·🇨🇳 China

打ち上げ May 10, 1999 から Taiyuan Satellite Launch Center

Loading…

次のパス (今後24時間)

TLE

最新Source: Space-Track

元期: Sep 14, 2026, 06:17 UTC

1 30369U 99025ACG 26257.26224528  .00000182  00000-0  11606-3 0  9997
2 30369  98.7355 252.4293 0100102 132.2145 240.1631 14.12258088 11366

AllMySatでFENGYUN 1C DEBをリアルタイム追跡

Download on the App Store